AZA961 EDLV-EPKK

Flight info

Callsign AZA961
Flight time 1h 33m
Altitude 37000
Route SONEB2R SONEB L620 HMM DCT NOMKA DCT TADUV DCT BEBKU DCT LASIS DCT MOFKE
Aircraft A20N/M-SDE2E3FGHIRWXY/LB1

Departure

Time 2026-05-01 08:59
Airport Weeze (Niederrhein) Airport (EDLV)

Arrival

Time 2026-05-01 10:32
Airport Kraków John Paul II International Airport (EPKK)
Time Latitude Longitude Altitude Speed Heading
2026-05-01 08:41 51.60001 6.14664 110 ft 0 kts 93°
2026-05-01 08:52 51.60001 6.14665 110 ft 0 kts 93°
2026-05-01 08:52 51.60002 6.14676 110 ft 3 kts 69°
2026-05-01 08:52 51.60042 6.14652 110 ft 9 kts 296°
2026-05-01 08:53 51.60047 6.14539 109 ft 12 kts 270°
2026-05-01 08:53 51.60048 6.14388 109 ft 15 kts 273°
2026-05-01 08:53 51.60053 6.14204 109 ft 18 kts 273°
2026-05-01 08:53 51.60059 6.13991 108 ft 21 kts 272°
2026-05-01 08:54 51.60064 6.13743 108 ft 23 kts 272°
2026-05-01 08:54 51.60069 6.13475 107 ft 25 kts 271°
2026-05-01 08:54 51.60077 6.13180 106 ft 27 kts 272°
2026-05-01 08:54 51.60085 6.12863 105 ft 29 kts 271°
2026-05-01 08:55 51.60090 6.12562 104 ft 22 kts 272°
2026-05-01 08:55 51.60124 6.12460 104 ft 6 kts 356°
2026-05-01 08:55 51.60174 6.12458 104 ft 7 kts
2026-05-01 08:55 51.60181 6.12458 104 ft 0 kts
2026-05-01 08:56 51.60189 6.12459 103 ft 4 kts
2026-05-01 08:56 51.60240 6.12463 103 ft 10 kts
2026-05-01 08:57 51.60285 6.12510 103 ft 7 kts 95°
2026-05-01 08:57 51.60284 6.12516 103 ft 0 kts 104°
2026-05-01 08:57 51.60284 6.12526 103 ft 1 kts 93°
2026-05-01 08:58 51.60283 6.12536 103 ft 8 kts 93°
2026-05-01 08:58 51.60272 6.13027 104 ft 77 kts 92°
2026-05-01 08:59 51.60249 6.14188 109 ft 128 kts 92°
2026-05-01 08:59 51.60202 6.15747 502 ft 147 kts 96°
2026-05-01 08:59 51.60190 6.17411 1321 ft 145 kts 96°
2026-05-01 08:59 51.60168 6.18950 2079 ft 139 kts 101°
2026-05-01 09:00 51.60190 6.20645 2436 ft 162 kts 91°
2026-05-01 09:00 51.60481 6.22549 2879 ft 186 kts 82°
2026-05-01 09:00 51.60924 6.24622 3268 ft 208 kts 69°
2026-05-01 09:00 51.61712 6.26630 3806 ft 224 kts 61°
2026-05-01 09:01 51.62659 6.28786 4303 ft 244 kts 59°
2026-05-01 09:01 51.63658 6.31039 5163 ft 247 kts 59°
2026-05-01 09:01 51.64651 6.33295 6062 ft 247 kts 59°
2026-05-01 09:01 51.65601 6.35606 6898 ft 246 kts 68°
2026-05-01 09:02 51.65984 6.38241 7619 ft 246 kts 93°
2026-05-01 09:02 51.65929 6.41101 8066 ft 263 kts 96°
2026-05-01 09:02 51.65818 6.44067 8909 ft 266 kts 97°
2026-05-01 09:02 51.65700 6.47067 9814 ft 270 kts 97°
2026-05-01 09:03 51.65583 6.50113 10595 ft 275 kts 97°
2026-05-01 09:03 51.65463 6.53310 10927 ft 297 kts 96°
2026-05-01 09:03 51.65337 6.56727 11180 ft 320 kts 96°
2026-05-01 09:03 51.65208 6.60363 11771 ft 328 kts 95°
2026-05-01 09:04 51.65081 6.64064 12550 ft 331 kts 95°
2026-05-01 09:04 51.64949 6.67791 13284 ft 336 kts 95°
2026-05-01 09:04 51.64813 6.71583 14040 ft 340 kts 95°
2026-05-01 09:04 51.64674 6.75358 14700 ft 344 kts 95°
2026-05-01 09:05 51.64529 6.79229 15377 ft 348 kts 95°
2026-05-01 09:05 51.64384 6.83136 16063 ft 351 kts 95°
2026-05-01 09:05 51.64235 6.87086 16707 ft 355 kts 95°
2026-05-01 09:05 51.64082 6.91082 17364 ft 359 kts 95°
2026-05-01 09:06 51.63926 6.95112 18001 ft 363 kts 95°
2026-05-01 09:06 51.63768 6.99182 18644 ft 366 kts 94°
2026-05-01 09:06 51.63606 7.03306 19202 ft 369 kts 94°
2026-05-01 09:06 51.63443 7.07431 19749 ft 373 kts 94°
2026-05-01 09:07 51.63276 7.11616 20314 ft 376 kts 94°
2026-05-01 09:07 51.63107 7.15837 20845 ft 380 kts 94°
2026-05-01 09:07 51.62933 7.20096 21381 ft 383 kts 94°
2026-05-01 09:07 51.62759 7.24334 21920 ft 386 kts 94°
2026-05-01 09:08 51.62580 7.28665 22434 ft 390 kts 94°
2026-05-01 09:08 51.62397 7.33031 22938 ft 394 kts 93°
2026-05-01 09:08 51.62210 7.37461 23414 ft 398 kts 93°
2026-05-01 09:08 51.62020 7.41930 23941 ft 401 kts 93°
2026-05-01 09:09 51.61826 7.46436 24366 ft 405 kts 93°
2026-05-01 09:09 51.61635 7.50848 24782 ft 407 kts 93°
2026-05-01 09:09 51.61429 7.55558 25222 ft 410 kts 93°
2026-05-01 09:09 51.61229 7.60104 25634 ft 413 kts 92°
2026-05-01 09:10 51.61023 7.64740 26025 ft 417 kts 93°
2026-05-01 09:10 51.60813 7.69408 26428 ft 419 kts 93°
2026-05-01 09:10 51.60601 7.74097 26814 ft 422 kts 92°
2026-05-01 09:10 51.60385 7.78826 27197 ft 425 kts 92°
2026-05-01 09:11 51.60166 7.83587 27572 ft 428 kts 92°
2026-05-01 09:11 51.59944 7.88382 27940 ft 430 kts 92°
2026-05-01 09:11 51.59722 7.93132 28297 ft 433 kts 92°
2026-05-01 09:11 51.59493 7.97966 28646 ft 435 kts 93°
2026-05-01 09:12 51.59260 8.02852 28983 ft 437 kts 92°
2026-05-01 09:12 51.59025 8.07748 29321 ft 440 kts 92°
2026-05-01 09:12 51.58786 8.12663 29641 ft 442 kts 92°
2026-05-01 09:12 51.58544 8.17604 29956 ft 445 kts 92°
2026-05-01 09:13 51.58298 8.22572 30275 ft 447 kts 92°
2026-05-01 09:13 51.58049 8.27571 30570 ft 449 kts 92°
2026-05-01 09:13 51.57798 8.32584 30849 ft 451 kts 92°
2026-05-01 09:13 51.57543 8.37624 31128 ft 453 kts 92°
2026-05-01 09:14 51.57285 8.42672 31395 ft 455 kts 92°
2026-05-01 09:14 51.57024 8.47742 31719 ft 456 kts 92°
2026-05-01 09:14 51.56761 8.52818 32086 ft 455 kts 92°
2026-05-01 09:14 51.56495 8.57892 32437 ft 455 kts 92°
2026-05-01 09:15 51.56227 8.62952 32777 ft 454 kts 92°
2026-05-01 09:15 51.55960 8.67995 33108 ft 454 kts 93°
2026-05-01 09:15 51.55688 8.73058 33445 ft 453 kts 93°
2026-05-01 09:15 51.55416 8.78089 33772 ft 453 kts 93°
2026-05-01 09:16 51.55141 8.83131 34089 ft 453 kts 93°
2026-05-01 09:16 51.54865 8.88168 34379 ft 452 kts 93°
2026-05-01 09:16 51.54587 8.93192 34652 ft 451 kts 93°
2026-05-01 09:17 51.54027 9.03183 35144 ft 451 kts 93°
2026-05-01 09:17 51.53744 9.08196 35390 ft 450 kts 93°
2026-05-01 09:17 51.53170 9.18202 35844 ft 449 kts 94°
2026-05-01 09:18 51.52880 9.23195 36074 ft 449 kts 94°
2026-05-01 09:18 51.52294 9.33167 36508 ft 448 kts 94°
2026-05-01 09:19 51.51702 9.43118 36908 ft 447 kts 94°
2026-05-01 09:19 51.51407 9.48021 37095 ft 446 kts 94°
2026-05-01 09:19 51.51102 9.53044 37277 ft 446 kts 94°
2026-05-01 09:20 51.50497 9.62911 37422 ft 446 kts 94°
2026-05-01 09:21 51.49260 9.82673 37420 ft 444 kts 94°
2026-05-01 09:21 51.48310 9.97508 37429 ft 444 kts 94°
2026-05-01 09:22 51.47026 10.17077 37419 ft 442 kts 94°
2026-05-01 09:23 51.46041 10.31779 37408 ft 442 kts 94°
2026-05-01 09:24 51.45045 10.46447 37414 ft 441 kts 94°
2026-05-01 09:25 51.44743 10.65951 37414 ft 439 kts 88°
2026-05-01 09:26 51.44741 10.80635 37416 ft 439 kts 88°
2026-05-01 09:26 51.44694 10.95328 37433 ft 440 kts 89°
2026-05-01 09:27 51.44628 11.09956 37440 ft 440 kts 89°
2026-05-01 09:28 51.44573 11.19876 37444 ft 441 kts 89°
2026-05-01 09:28 51.44510 11.29641 37454 ft 441 kts 89°
2026-05-01 09:29 51.44403 11.44214 37451 ft 440 kts 89°
2026-05-01 09:30 51.44276 11.58921 37442 ft 439 kts 89°
2026-05-01 09:30 51.44130 11.73606 37439 ft 439 kts 89°
2026-05-01 09:31 51.44023 11.83326 37445 ft 438 kts 89°
2026-05-01 09:32 51.43848 11.97989 37455 ft 438 kts 89°
2026-05-01 09:32 51.43675 12.11045 37454 ft 438 kts 89°
2026-05-01 09:33 51.43538 12.20753 37454 ft 437 kts 89°
2026-05-01 09:34 51.43317 12.35349 37452 ft 436 kts 89°
2026-05-01 09:34 51.43078 12.49934 37445 ft 436 kts 89°
2026-05-01 09:35 51.43130 12.64460 37439 ft 434 kts 84°
2026-05-01 09:36 51.43452 12.74115 37439 ft 433 kts 85°
2026-05-01 09:36 51.43711 12.83709 37432 ft 433 kts 85°
2026-05-01 09:37 51.43937 12.93358 37435 ft 433 kts 85°
2026-05-01 09:37 51.44257 13.07821 37429 ft 432 kts 85°
2026-05-01 09:38 51.44560 13.22285 37430 ft 432 kts 85°
2026-05-01 09:39 51.44844 13.36729 37430 ft 432 kts 85°
2026-05-01 09:39 51.45022 13.46235 37429 ft 432 kts 85°
2026-05-01 09:40 51.45276 13.60652 37430 ft 431 kts 85°
2026-05-01 09:41 51.45430 13.69879 37430 ft 431 kts 86°
2026-05-01 09:41 51.45656 13.84317 37429 ft 431 kts 86°
2026-05-01 09:42 51.45401 13.93944 37432 ft 432 kts 91°
2026-05-01 09:43 51.44592 14.13116 37432 ft 432 kts 91°
2026-05-01 09:43 51.44173 14.22741 37434 ft 432 kts 91°
2026-05-01 09:44 51.43527 14.37144 37436 ft 432 kts 91°
2026-05-01 09:45 51.43086 14.46751 37431 ft 432 kts 91°
2026-05-01 09:45 51.42414 14.61088 37434 ft 431 kts 91°
2026-05-01 09:46 51.41956 14.70662 37431 ft 431 kts 91°
2026-05-01 09:46 51.41489 14.80232 37425 ft 430 kts 91°
2026-05-01 09:47 51.40991 14.89782 37423 ft 430 kts 94°
2026-05-01 09:47 51.39773 14.99193 37419 ft 434 kts 103°
2026-05-01 09:48 51.37637 15.08280 37418 ft 436 kts 108°
2026-05-01 09:48 51.35377 15.17219 37415 ft 436 kts 108°
2026-05-01 09:49 51.33105 15.26203 37413 ft 435 kts 108°
2026-05-01 09:49 51.30819 15.35185 37407 ft 435 kts 108°
2026-05-01 09:50 51.28524 15.44161 37406 ft 435 kts 108°
2026-05-01 09:50 51.26229 15.53102 37408 ft 435 kts 108°
2026-05-01 09:51 51.23940 15.61983 37415 ft 435 kts 108°
2026-05-01 09:51 51.21651 15.70831 37407 ft 435 kts 108°
2026-05-01 09:52 51.19369 15.79619 37410 ft 435 kts 108°
2026-05-01 09:52 51.17073 15.88423 37413 ft 435 kts 108°
2026-05-01 09:53 51.14746 15.97311 37402 ft 435 kts 108°
2026-05-01 09:53 51.12410 16.06201 37395 ft 435 kts 108°
2026-05-01 09:54 51.10083 16.15019 37396 ft 434 kts 108°
2026-05-01 09:54 51.07740 16.23870 37399 ft 434 kts 108°
2026-05-01 09:55 51.05394 16.32692 37394 ft 434 kts 108°
2026-05-01 09:55 51.03029 16.41554 37394 ft 434 kts 108°
2026-05-01 09:56 51.00706 16.50224 37397 ft 434 kts 108°
2026-05-01 09:56 50.98347 16.59001 37397 ft 434 kts 108°
2026-05-01 09:57 50.95984 16.67753 37400 ft 433 kts 108°
2026-05-01 09:57 50.93605 16.76532 37396 ft 433 kts 108°
2026-05-01 09:58 50.91218 16.85309 37394 ft 433 kts 108°
2026-05-01 09:58 50.88828 16.94062 37342 ft 432 kts 108°
2026-05-01 09:59 50.87628 16.98443 37023 ft 433 kts 108°
2026-05-01 09:59 50.86429 17.02817 36508 ft 434 kts 108°
2026-05-01 09:59 50.85227 17.07189 36005 ft 432 kts 108°
2026-05-01 09:59 50.84028 17.11537 35502 ft 430 kts 108°
2026-05-01 10:00 50.82849 17.15810 35015 ft 430 kts 108°
2026-05-01 10:00 50.81648 17.20160 34541 ft 431 kts 108°
2026-05-01 10:00 50.80448 17.24498 34011 ft 432 kts 108°
2026-05-01 10:00 50.79242 17.28847 33475 ft 432 kts 108°
2026-05-01 10:01 50.78032 17.33203 32944 ft 433 kts 108°
2026-05-01 10:01 50.76817 17.37568 32431 ft 434 kts 108°
2026-05-01 10:01 50.75600 17.41931 31913 ft 434 kts 108°
2026-05-01 10:01 50.74382 17.46288 31426 ft 435 kts 108°
2026-05-01 10:02 50.73160 17.50655 30924 ft 435 kts 108°
2026-05-01 10:02 50.71935 17.55018 30430 ft 433 kts 108°
2026-05-01 10:02 50.70733 17.59286 29862 ft 428 kts 108°
2026-05-01 10:02 50.69528 17.63553 29304 ft 423 kts 108°
2026-05-01 10:03 50.68342 17.67753 28756 ft 417 kts 107°
2026-05-01 10:03 50.67167 17.71909 28219 ft 413 kts 107°
2026-05-01 10:03 50.66001 17.76035 27704 ft 411 kts 107°
2026-05-01 10:03 50.64838 17.80143 27182 ft 409 kts 107°
2026-05-01 10:04 50.63680 17.84222 26671 ft 405 kts 107°
2026-05-01 10:04 50.62533 17.88250 26188 ft 400 kts 107°
2026-05-01 10:04 50.61400 17.92228 25685 ft 398 kts 107°
2026-05-01 10:04 50.60271 17.96191 25205 ft 396 kts 107°
2026-05-01 10:05 50.59323 18.00143 24721 ft 387 kts 100°
2026-05-01 10:05 50.58721 18.04226 24269 ft 378 kts 93°
2026-05-01 10:05 50.58454 18.08300 23776 ft 371 kts 86°
2026-05-01 10:05 50.58350 18.12337 23229 ft 368 kts 86°
2026-05-01 10:06 50.58241 18.16344 22689 ft 365 kts 87°
2026-05-01 10:06 50.58126 18.20323 22159 ft 362 kts 87°
2026-05-01 10:06 50.58008 18.24272 21726 ft 360 kts 87°
2026-05-01 10:06 50.57889 18.28205 21336 ft 359 kts 87°
2026-05-01 10:07 50.57769 18.32117 20958 ft 358 kts 87°
2026-05-01 10:07 50.57648 18.36025 20585 ft 357 kts 87°
2026-05-01 10:07 50.57527 18.39865 20220 ft 354 kts 87°
2026-05-01 10:07 50.57404 18.43729 19849 ft 353 kts 87°
2026-05-01 10:08 50.57133 18.51413 19127 ft 351 kts 88°
2026-05-01 10:08 50.56987 18.55241 18774 ft 349 kts 88°
2026-05-01 10:08 50.56842 18.59046 18386 ft 348 kts 88°
2026-05-01 10:09 50.56697 18.62832 17977 ft 346 kts 88°
2026-05-01 10:09 50.56553 18.66608 17575 ft 345 kts 88°
2026-05-01 10:09 50.56409 18.70364 17266 ft 342 kts 88°
2026-05-01 10:09 50.56349 18.74034 17025 ft 330 kts 84°
2026-05-01 10:10 50.56371 18.77600 16759 ft 321 kts 84°
2026-05-01 10:10 50.56389 18.81064 16501 ft 312 kts 84°
2026-05-01 10:10 50.56413 18.87699 15993 ft 297 kts 84°
2026-05-01 10:11 50.56425 18.90905 15741 ft 290 kts 83°
2026-05-01 10:11 50.56439 18.94054 15494 ft 285 kts 83°
2026-05-01 10:11 50.56454 18.97189 15245 ft 287 kts 83°
2026-05-01 10:11 50.56467 19.00328 15005 ft 288 kts 83°
2026-05-01 10:12 50.56478 19.03480 14759 ft 286 kts 84°
2026-05-01 10:12 50.56484 19.05556 14605 ft 286 kts 84°
2026-05-01 10:12 50.56498 19.12807 14039 ft 285 kts 84°
2026-05-01 10:13 50.56492 19.15925 13766 ft 284 kts 84°
2026-05-01 10:13 50.56475 19.19030 13512 ft 283 kts 85°
2026-05-01 10:13 50.56457 19.22134 13242 ft 283 kts 85°
2026-05-01 10:14 50.56421 19.28308 12720 ft 282 kts 85°
2026-05-01 10:14 50.56405 19.31386 12465 ft 281 kts 85°
2026-05-01 10:14 50.56388 19.34456 12197 ft 280 kts 85°
2026-05-01 10:14 50.56370 19.37479 11949 ft 279 kts 85°
2026-05-01 10:15 50.56350 19.40526 11710 ft 279 kts 85°
2026-05-01 10:15 50.56329 19.43582 11455 ft 279 kts 85°
2026-05-01 10:15 50.56308 19.46631 11207 ft 278 kts 85°
2026-05-01 10:15 50.56286 19.49662 10964 ft 276 kts 85°
2026-05-01 10:16 50.56263 19.52702 10708 ft 277 kts 85°
2026-05-01 10:16 50.56240 19.55734 10475 ft 277 kts 86°
2026-05-01 10:16 50.56101 19.61731 9960 ft 280 kts 98°
2026-05-01 10:17 50.55270 19.64528 9699 ft 290 kts 124°
2026-05-01 10:17 50.51848 19.68054 9356 ft 298 kts 150°
2026-05-01 10:17 50.49973 19.69456 9340 ft 299 kts 151°
2026-05-01 10:18 50.46227 19.72284 9344 ft 299 kts 150°
2026-05-01 10:18 50.44356 19.73731 9343 ft 299 kts 150°
2026-05-01 10:18 50.42498 19.75178 9339 ft 299 kts 150°
2026-05-01 10:19 50.40635 19.76637 9342 ft 299 kts 150°
2026-05-01 10:19 50.38779 19.78090 9343 ft 298 kts 150°
2026-05-01 10:19 50.36954 19.79513 9342 ft 290 kts 150°
2026-05-01 10:20 50.33549 19.82159 9038 ft 273 kts 150°
2026-05-01 10:20 50.31862 19.83473 8788 ft 268 kts 150°
2026-05-01 10:20 50.30200 19.84769 8531 ft 265 kts 150°
2026-05-01 10:20 50.28557 19.86050 8271 ft 262 kts 150°
2026-05-01 10:21 50.27479 19.86894 8106 ft 260 kts 150°
2026-05-01 10:21 50.24298 19.89381 7596 ft 250 kts 150°
2026-05-01 10:21 50.22755 19.90587 7330 ft 246 kts 150°
2026-05-01 10:22 50.19888 19.93266 6849 ft 238 kts 125°
2026-05-01 10:22 50.19365 19.97945 6341 ft 223 kts 73°
2026-05-01 10:23 50.19725 20.00253 6083 ft 222 kts 72°
2026-05-01 10:23 50.20461 20.04951 5555 ft 223 kts 73°
2026-05-01 10:23 50.20798 20.07316 5296 ft 222 kts 74°
2026-05-01 10:24 50.21446 20.12067 4775 ft 223 kts 75°
2026-05-01 10:24 50.22042 20.16734 4255 ft 219 kts 83°
2026-05-01 10:25 50.20737 20.20821 3745 ft 221 kts 152°
2026-05-01 10:25 50.17780 20.21567 3232 ft 214 kts 180°
2026-05-01 10:26 50.16298 20.21632 3018 ft 210 kts 180°
2026-05-01 10:26 50.14925 20.21347 3039 ft 191 kts 206°
2026-05-01 10:26 50.13322 20.18161 2995 ft 191 kts 254°
2026-05-01 10:27 50.12724 20.14185 2997 ft 189 kts 260°
2026-05-01 10:27 50.12175 20.10174 2995 ft 187 kts 261°
2026-05-01 10:28 50.11896 20.08154 2991 ft 192 kts 260°
2026-05-01 10:28 50.11325 20.04082 3010 ft 190 kts 260°
2026-05-01 10:28 50.11051 20.02072 3011 ft 189 kts 260°
2026-05-01 10:29 50.10508 19.98229 3019 ft 164 kts 261°
2026-05-01 10:29 50.10275 19.96498 2955 ft 168 kts 261°
2026-05-01 10:30 50.09777 19.92914 2485 ft 167 kts 260°
2026-05-01 10:30 50.09328 19.89693 2056 ft 138 kts 261°
2026-05-01 10:31 50.08942 19.86903 1707 ft 132 kts 258°
2026-05-01 10:31 50.08554 19.84107 1479 ft 133 kts 258°
2026-05-01 10:32 50.08102 19.80893 961 ft 148 kts 259°
2026-05-01 10:32 50.07885 19.79393 791 ft 130 kts 260°
2026-05-01 10:32 50.07677 19.78116 794 ft 16 kts 202°
2026-05-01 10:33 50.07610 19.78107 794 ft 4 kts 181°
2026-05-01 10:33 50.07507 19.78103 795 ft 10 kts 182°
2026-05-01 10:34 50.07427 19.78095 795 ft 13 kts 184°
2026-05-01 10:34 50.07341 19.78104 795 ft 9 kts 136°
2026-05-01 10:34 50.07342 19.78201 795 ft 10 kts 65°
2026-05-01 10:35 50.07511 19.78809 792 ft 37 kts 66°
2026-05-01 10:35 50.07613 19.79188 791 ft 38 kts 75°
2026-05-01 10:35 50.07660 19.79591 789 ft 38 kts 94°
2026-05-01 10:35 50.07540 19.79920 788 ft 28 kts 140°
2026-05-01 10:36 50.07329 19.80017 788 ft 0 kts 171°
2026-05-01 10:36 50.07327 19.80015 788 ft 0 kts 193°
2026-05-01 10:36 50.07315 19.80016 788 ft 3 kts 165°
2026-05-01 10:37 50.07311 19.80017 788 ft 0 kts 167°